San Sebastian, Spain

3:17 PM CET on February 12, 2016 (GMT +0100)
San Sebastian

Weather History for LESO - March, 2013

Change the Weather History Date:

Tuesday, March 5, 2013

  Actual Average Record
Temperature  
Mean Temperature 60 °F -  
Max Temperature 64 °F 59 °F 69 °F (2003)
Min Temperature 55 °F 45 °F 35 °F (2011)
Degree Days  
Heating Degree Days 6    
Growing Degree Days 10 (Base 50)    
Moisture  
Dew Point 45 °F    
Average Humidity 54    
Maximum Humidity 67    
Minimum Humidity 48    
Precipitation  
Precipitation 0.00 in - - ()
Sea Level Pressure  
Sea Level Pressure 29.42 in    
Wind  
Wind Speed 6 mph ()    
Max Wind Speed 16 mph    
Max Gust Speed 28 mph    
Visibility 6.2 miles    
Events      
Averages and records for this station are not official NWS values.
T = Trace of Precipitation, MM = Missing Value Source: Averaged Metar Reports

Daily Weather History Graph

Daily Weather History Graph

Search for Another Location

Airport or City:

Trip Planner

Search our weather history database for the weather conditions in past years. The results will help you decide how hot, cold, wet, or windy it might be!

Date:

Astronomy

Mar. 05, 2013 Rise Set
Actual Time 7:36 AM CET 7:01 PM CET
Civil Twilight 7:08 AM CET 7:29 PM CET
Nautical Twilight 6:35 AM CET 8:02 PM CET
Astronomical Twilight 6:02 AM CET 8:36 PM CET
Moon 2:41 AM CET (3/5) 12:18 PM CET (3/5)
Length of Visible Light 12h 21m
Length of Day
11h 24m
Last Quarter, 44% of the Moon is Illuminated
Mar 5
Last Quarter
Mar 11
New
Mar 19
First Quarter
Mar 27
Full
Apr 3
Last Quarter

Hourly Weather History & Observations

Time (CET) Temp. Dew Point Humidity Pressure Visibility Wind Dir Wind Speed Gust Speed Precip Events Conditions
5:30 AM 55.4 °F 44.6 °F 67% 29.44 in - Variable 3.5 mph - N/A   Clear
6:00 AM 60.8 °F 41.0 °F 48% 29.44 in 6.2 mi ESE 5.8 mph - N/A   Scattered Clouds
6:30 AM 60.8 °F 41.0 °F 48% 29.44 in - Variable 3.5 mph - N/A   Clear
7:00 AM 60.8 °F 42.8 °F 52% 29.44 in - Variable 5.8 mph - N/A   Clear
8:00 AM 60.8 °F 42.8 °F 52% 29.44 in - SE 10.4 mph - N/A   Clear
8:30 AM 59.0 °F 42.8 °F 55% 29.44 in - SSE 9.2 mph - N/A   Clear
9:00 AM 60.8 °F 42.8 °F 52% 29.47 in - SSE 8.1 mph - N/A   Clear
9:30 AM 60.8 °F 42.8 °F 52% 29.47 in - SSE 6.9 mph - N/A   Clear
10:00 AM 60.8 °F 42.8 °F 52% 29.44 in - SE 10.4 mph - N/A   Clear
10:30 AM 60.8 °F 42.8 °F 52% 29.44 in 6.2 mi Variable 5.8 mph - N/A   Partly Cloudy
11:00 AM 60.8 °F 44.6 °F 55% 29.44 in 6.2 mi SSE 9.2 mph - N/A   Partly Cloudy
11:30 AM 60.8 °F 44.6 °F 55% 29.44 in 6.2 mi SE 4.6 mph - N/A   Partly Cloudy
12:00 PM 62.6 °F 44.6 °F 52% 29.44 in 6.2 mi SE 3.5 mph - N/A   Partly Cloudy
12:30 PM 62.6 °F 42.8 °F 48% 29.44 in 6.2 mi Variable 4.6 mph 16.1 mph N/A   Scattered Clouds
1:00 PM 64.4 °F 44.6 °F 49% 29.42 in 6.2 mi ESE 6.9 mph - N/A   Scattered Clouds
2:00 PM 64.4 °F 44.6 °F 49% 29.42 in 6.2 mi SSE 9.2 mph - N/A   Scattered Clouds
2:30 PM 64.4 °F 44.6 °F 49% 29.42 in 6.2 mi South 11.5 mph - N/A   Mostly Cloudy
3:00 PM 62.6 °F 46.4 °F 55% 29.39 in 6.2 mi South 16.1 mph 27.6 mph N/A   Mostly Cloudy
3:30 PM 64.4 °F 46.4 °F 52% 29.39 in 6.2 mi SSE 15.0 mph - N/A   Mostly Cloudy
4:00 PM 62.6 °F 46.4 °F 55% 29.39 in 6.2 mi SSE 11.5 mph - N/A   Mostly Cloudy
4:30 PM 62.6 °F 46.4 °F 55% 29.39 in 6.2 mi SE 6.9 mph - N/A   Scattered Clouds
5:00 PM 62.6 °F 46.4 °F 55% 29.36 in 6.2 mi Variable 11.5 mph 25.3 mph N/A   Partly Cloudy
5:30 PM 62.6 °F 46.4 °F 55% 29.36 in 6.2 mi Variable 6.9 mph 18.4 mph N/A   Scattered Clouds
6:30 PM 62.6 °F 46.4 °F 55% 29.36 in 6.2 mi ESE 9.2 mph - N/A   Scattered Clouds
7:00 PM 62.6 °F 46.4 °F 55% 29.39 in 6.2 mi ESE 10.4 mph - N/A   Scattered Clouds
7:30 PM 60.8 °F 46.4 °F 59% 29.39 in 6.2 mi East 5.8 mph - N/A   Partly Cloudy
8:00 PM 60.8 °F 46.4 °F 59% 29.39 in 6.2 mi Calm Calm - N/A   Scattered Clouds
8:30 PM 59.0 °F 46.4 °F 63% 29.39 in 6.2 mi East 4.6 mph - N/A   Partly Cloudy
9:00 PM 59.0 °F 46.4 °F 63% 29.42 in 6.2 mi East 3.5 mph - N/A   Partly Cloudy
9:30 PM 60.8 °F 46.4 °F 59% 29.39 in 6.2 mi ESE 3.5 mph - N/A   Partly Cloudy